Terminal Aerodrome Forecast
Issued by NWS Jackson, MS

Home | Current Version | Previous Version | Text Only | Print | Product List | Glossary On
Versions: 1 2 3 4 5 6 7 8 9 10 11 12 13 14
000
FTUS44 KJAN 262300
TAFJAN
TAF
KJAN 262330Z 2700/2724 23010KT P6SM FEW250
     FM270400 27007KT P6SM SKC
     FM271000 32007KT P6SM SKC
     FM272000 01005KT P6SM SKC=

USA.gov is the U.S. government's official web portal to all federal, state and local government web resources and services.